Flag for Germany Weather past 2 weeks in Garmisch-Partenkirchen, Bavaria, Germany

Now
66 °F

Sunny.


Feels Like: 66 °F
Forecast: 60 / 84 °F
Wind: 2 mph from North

Location: Innsbruck-Flughafen

Current Time: Aug 30, 2015 at 8:41:27 AM

Latest Report: Aug 30, 2015 at 7:50 AM


Visibility: 10 mi

Pressure: 30.21 "Hg (27.84 "Hg at 699m altitude)

Humidity: 78%

Dew point: 59 °F

Location of Garmisch-PartenkirchenLocation

Historic Weather in Garmisch-Partenkirchen — Graph

°F

Garmisch-Partenkirchen temperature yesterday

Maximum temperature yesterday: 90 °F (at 3:50 PM)
Minimum temperature yesterday: 59 °F (at 6:20 AM)
Average temperature yesterday: 74 °F

Past Weeks' High & Low Weather Summary

 TemperatureHumidityPressure
High90 °F (Aug 29, 3:50 PM)100% (Aug 16, 5:50 AM)30.30 "Hg (Aug 16, 5:50 AM)
Low48 °F (Aug 26, 6:20 AM)27% (Aug 27, 4:20 PM)29.77 "Hg (Aug 24, 1:20 PM)
Average65 °F75%30.04 "Hg
* Reported Aug 15 7:20 AM — Aug 30 7:20 AM, Garmisch-Partenkirchen, Weather by CustomWeather, © 2015

Note: Actual official high and low records may vary slightly from our data, if they occured in-between our weather recording intervals... More about our weather records

Advertising

Garmisch-Partenkirchen weather history for previous 24 hours

 ConditionsComfort  
Time TempWeatherWind HumidityBarometerVisibility
7:20 AM
Sun, Aug 30
64 °FPassing clouds.3 mph83%30.21 "HgN/A
6:50 AM63 °FClear.5 mph83%30.21 "Hg10 mi
5:50 AM63 °FPassing clouds.5 mph88%30.18 "HgN/A
5:20 AM64 °FMild.9 mph83%30.18 "HgN/A
4:50 AM64 °FMild.9 mph83%30.18 "HgN/A
4:20 AM64 °FMild.7 mph83%30.18 "HgN/A
3:50 AM64 °FMild.8 mph83%30.18 "HgN/A
3:20 AM64 °FMild.7 mph88%30.18 "HgN/A
2:50 AM66 °FMild.6 mph83%30.18 "HgN/A
2:20 AM66 °FMild.7 mph83%30.18 "HgN/A
1:50 AM68 °FMild.6 mph78%30.21 "HgN/A
1:20 AM68 °FMild.7 mph78%30.18 "HgN/A
12:50 AM66 °FMild.5 mph83%30.18 "HgN/A
12:20 AM66 °FMild.3 mph83%30.18 "HgN/A
11:50 PM
Sat, Aug 29
68 °FMild.3 mph78%30.18 "HgN/A
10:50 PM70 °FClear.2 mph78%30.18 "Hg10 mi
10:20 PM72 °FClear.2 mph73%30.18 "Hg10 mi
9:50 PM70 °FClear.2 mph78%30.18 "Hg10 mi
9:20 PM72 °FClear.1 mph78%30.18 "Hg10 mi
8:50 PM75 °FSunny.1 mph69%30.15 "Hg10 mi
8:20 PM79 °FSunny.1 mph58%30.12 "Hg10 mi
7:50 PM82 °FPassing clouds.6 mph51%30.12 "HgN/A
7:20 PM84 °FPassing clouds.10 mph48%30.12 "HgN/A
6:50 PM86 °FPassing clouds.8 mph49%30.12 "HgN/A
6:20 PM88 °FPassing clouds.10 mph43%30.12 "HgN/A
5:50 PM88 °FPassing clouds.12 mph40%30.12 "HgN/A
5:20 PM90 °FPassing clouds.10 mph36%30.12 "HgN/A
4:50 PM90 °FPassing clouds.12 mph36%30.12 "HgN/A
4:20 PM90 °FPassing clouds.8 mph36%30.12 "HgN/A
3:50 PM90 °FPassing clouds.7 mph38%30.15 "HgN/A
3:20 PM88 °FPassing clouds.8 mph40%30.15 "HgN/A
2:50 PM88 °FPassing clouds.7 mph40%30.18 "HgN/A
2:20 PM86 °FPassing clouds.5 mph43%30.18 "HgN/A
1:50 PM86 °FPassing clouds.6 mph43%30.18 "HgN/A
1:20 PM84 °FPassing clouds.3 mph45%30.21 "HgN/A
12:50 PM82 °FPassing clouds.2 mph45%30.21 "HgN/A
11:50 AM77 °FPassing clouds.3 mph54%30.24 "HgN/A
11:20 AM77 °FPassing clouds.5 mph54%30.27 "HgN/A
10:50 AM75 °FPassing clouds.6 mph61%30.27 "HgN/A
9:50 AM70 °FPassing clouds.3 mph73%30.27 "HgN/A
9:20 AM68 °FSunny.2 mph78%30.27 "Hg10 mi
8:50 AM66 °FSunny.3 mph78%30.30 "Hg10 mi
Weather by CustomWeather, © 2015

See weather overviewHow to use our weather pages